User: anonymous   Login
Location: Bazinghen
(50.8246°N, 1.6616°E)
Time: 13:36:47
(UTC+00:00)
Language:

STARLINK-1239 - Orbit

View from above orbital plane
View from above orbital plane
View from above satellite
View from above satellite

Ground track
Ground track

The orbit data is extracted from the following two-line orbital elements,

1 45193C 20012R   21207.13334758  .00007018  00000-0  47031-3 0  2079
2 45193  53.0537  62.3598 0001687  93.4671 130.3494 15.06381558    19
Epoch (UTC): 26 July 2021 03:12:01
Eccentricity: 0.0001687
inclination: 53.0537°
perigee height: 546 km
apogee height: 548 km
right ascension of ascending node: 62.3598°
argument of perigee: 93.4671°
revolutions per day: 15.06381558
mean anomaly at epoch: 130.3494°
orbit number at epoch: 1

The dashed part of the orbit path shows where the satellite is in the earth's shadow,  

DLR